Location: Newark
(34.6283°N, 36.0776°E)
Time: 14:51:51
(UTC+00:00)

S-56A Canister/Altair - Pass Details

Date: 22 October 2019
Orbit: 634 x 2498 km, 38.9° (Epoch: 17 November)

Event Time Altitude Azimuth Distance (km) Brightness Sun altitude
Rises 07:17:45 0° 282° (WNW) 5,082 11.3 35.9°
Reaches altitude 10° 07:21:41 10° 270° (W) 4,363 11.2 36.4°
Maximum altitude 07:30:43 24° 222° (SW) 3,793 11.4 37.5°
Drops below altitude 10° 07:41:19 10° 176° (S) 5,131 12.7 38.7°
Sets 07:46:35 0° 164° (SSE) 6,159 13.0 39.3°
